DELTA 1 DEB, 10207

Orbit data source: Space-Track

DELTA 1 DEB, 10207 is space debris in LEO originally from a launch on Thu, 14 Jul 1977 UTC launched from the Air Force Eastern Test Range (AFETR). Debris objects in space refer to the collection of defunct objects orbiting the Earth. Examples of debris include non-operational satellites, rocket bodies, and fragments generated from explosions, collisions, or faulty payload assembly.

Loading next visibility...
Identifier
10207, 1977-065AL
Orbit
LEO
Country
Flag of USUS
Related business
Manufacturer
Unknown
Mission
Spacecraft
Bus & Motor
Unknown
Mass
Unknown
Launch date (UTC)
1977-07-14 (48 years ago)
Launch vehicle
Unknown
Launch site
Air Force Eastern Test Range (AFETR)
Object type
Payload
Rocket body
Debris
Shape & HBR
Unknown
Radar Cross Section
Medium (>0.1 m² and <1 m²)

Expand to show TLE details & history
Last TLE update: 1 day ago

TLE from 1 day ago
0 DELTA 1 DEB
1 10207U 77065AL  25259.44491009  .00000353  00000-0  53718-3 0  9997
2 10207  29.0895  20.7434 0687896 345.5401  12.6338 12.73253453219270
Epoch: 2025-09-16T10:40Z
TLE epoch observation values (Epoch: 2025-09-16T10:40:40.231Z)
Latitude
0.00001°
Longitude
-135.05933°
Altitude
849.285 km
Speed
7.674 km/s
True Right ascension
01h 22m 58s
True Declination
0° 00' 00"
Sunlit
Object was in full shadow at epoch
Visualization orbit readout
Latitude
Unknown
Longitude
Unknown
Altitude
Unknown
Speed
Unknown
Apparent Right ascension
Unknown
Apparent Declination
Unknown
Sunlit
N/A
Visualization observer readout
Local Sidereal Time
12:40:00
Azimuth
Unknown
Elevation
Unknown
Doppler factor
Unknown
Orbital elements
Apogee altitude
1,905.574 km
Perigee altitude
839.259 km
Semi-major axis
7,750.554 km
Eccentricity
0.06879
Inclination
29.0895°
RAAN
20.7434°
Arg. of periapsis
345.5401°
True anomaly
14.51482°
Mean anomaly
12.6338°
Eccentric anomaly
13.55775°
Mean motion
3.18086 °/min
Orbital period
113.18 mins
BSTAR
0.00053718
Loading maneuver chart data...
Computing Atmospheric mass density...
Loading historical data...
Loading historical data...
Loading historical data...
Loading historical data...
Loading historical data...
Loading historical data...
Loading historical data...

Documentation

Showing up to 5 results
|